Back to catalog

STARLINK-33856

AliveCommunicationsVLEO
NORAD 63638·PAYLOAD·🇺🇸 United States

Launched Apr 25, 2025 from Cape Canaveral Space Force Station

Loading…

Next Passes (next 24 hours)

TLE

FreshSource: CelesTrak SupGP

Epoch: Sep 14, 2026, 23:09 UTC

1 63638C 25083E   26257.96506944 -.00003051  00000+0 -11045-3 0  2570
2 63638  43.0017  16.1030 0001576 275.2257 174.3585 15.27596088    18

Track STARLINK-33856 in real time with AllMySat

Download on the App Store